�������l�o���
Date,Time,MP-1(��Sv/h),MP-2(��Sv/h),MP-3(��Sv/h),MP-4(��Sv/h),MP-5(��Sv/h),MP-6(��Sv/h),MP-7(��Sv/h),MP-8(��Sv/h),����,����(m/s),���J
2020/04/18,00:00,0.693,1.006,0.656,1.206,0.862,0.397,0.693,0.659,�쓌,2.0,��
2020/04/18,00:10,0.693,1.002,0.658,1.206,0.860,0.398,0.692,0.655,�쓌,2.2,��
2020/04/18,00:20,0.693,1.003,0.656,1.204,0.862,0.395,0.691,0.656,�쓌,2.9,��
2020/04/18,00:30,0.693,1.004,0.657,1.201,0.861,0.396,0.692,0.656,�쓌,2.3,��
2020/04/18,00:40,0.692,1.001,0.657,1.206,0.861,0.398,0.693,0.658,�쓌,2.3,��
2020/04/18,00:50,0.693,1.003,0.657,1.203,0.863,0.397,0.692,0.656,���쓌,0.9,��
2020/04/18,01:00,0.694,1.002,0.657,1.205,0.862,0.397,0.692,0.657,��쓌,2.2,��
2020/04/18,01:10,0.692,1.003,0.657,1.206,0.863,0.398,0.692,0.656,��쓌,3.5,��
2020/04/18,01:20,0.694,1.004,0.655,1.206,0.863,0.397,0.691,0.655,��쓌,2.5,��
2020/04/18,01:30,0.693,1.004,0.659,1.204,0.861,0.396,0.690,0.656,��쓌,2.8,��
2020/04/18,01:40,0.693,1.002,0.656,1.206,0.862,0.396,0.690,0.656,��쓌,3.3,��
2020/04/18,01:50,0.694,1.004,0.657,1.206,0.860,0.395,0.691,0.656,��쓌,2.9,��
2020/04/18,02:00,0.693,1.003,0.657,1.206,0.861,0.396,0.691,0.656,��쓌,1.7,��
2020/04/18,02:10,0.696,1.004,0.656,1.205,0.862,0.396,0.690,0.655,��쓌,1.2,��
2020/04/18,02:20,0.693,1.003,0.657,1.205,0.863,0.397,0.691,0.657,�쓌,1.2,��
2020/04/18,02:30,0.693,1.003,0.657,1.205,0.863,0.398,0.691,0.656,���쓌,1.1,��
2020/04/18,02:40,0.693,1.002,0.657,1.205,0.864,0.396,0.689,0.656,�쓌,1.2,��
2020/04/18,02:50,0.694,1.005,0.657,1.204,0.861,0.396,0.691,0.657,���쓌,0.9,��
2020/04/18,03:00,0.693,1.004,0.657,1.206,0.864,0.396,0.690,0.656,�쓌,1.7,��
2020/04/18,03:10,0.694,1.003,0.656,1.204,0.862,0.396,0.691,0.657,�쓌,1.7,��
2020/04/18,03:20,0.694,1.004,0.657,1.203,0.864,0.397,0.691,0.656,-,CALM,��
2020/04/18,03:30,0.693,1.003,0.657,1.206,0.863,0.396,0.691,0.656,��,0.8,��
2020/04/18,03:40,0.693,1.001,0.657,1.204,0.863,0.396,0.692,0.657,��,1.5,��
2020/04/18,03:50,0.694,1.004,0.659,1.205,0.861,0.398,0.691,0.657,��쓌,1.1,��
2020/04/18,04:00,0.695,1.004,0.657,1.204,0.861,0.396,0.690,0.657,�쓌,2.0,��
2020/04/18,04:10,0.694,1.004,0.657,1.205,0.863,0.397,0.690,0.655,�쓌,2.3,��
2020/04/18,04:20,0.695,1.003,0.656,1.205,0.863,0.397,0.692,0.657,�쓌,2.0,��
2020/04/18,04:30,0.695,1.004,0.657,1.206,0.863,0.398,0.689,0.656,���쓌,1.9,�L
2020/04/18,04:40,0.694,1.004,0.658,1.205,0.862,0.396,0.692,0.657,�쓌,2.0,��
2020/04/18,04:50,0.693,1.004,0.655,1.203,0.862,0.398,0.691,0.656,���쓌,1.7,�L
2020/04/18,05:00,0.694,1.002,0.658,1.207,0.862,0.397,0.692,0.656,���쓌,1.2,�L
2020/04/18,05:10,0.695,1.004,0.657,1.206,0.860,0.397,0.690,0.657,���쓌,1.5,�L
2020/04/18,05:20,0.694,1.003,0.656,1.203,0.861,0.398,0.690,0.658,���쓌,1.4,�L
2020/04/18,05:30,0.693,1.003,0.657,1.205,0.860,0.397,0.691,0.655,��,1.7,�L
2020/04/18,05:40,0.693,1.001,0.659,1.205,0.860,0.396,0.691,0.656,��,2.0,�L
2020/04/18,05:50,0.693,1.004,0.655,1.205,0.861,0.397,0.691,0.656,���쓌,1.9,�L
2020/04/18,06:00,0.693,1.001,0.658,1.205,0.861,0.397,0.690,0.657,���쓌,1.5,�L
2020/04/18,06:10,0.694,1.002,0.657,1.205,0.862,0.396,0.692,0.656,��,1.2,�L
2020/04/18,06:20,0.694,1.000,0.657,1.205,0.861,0.397,0.692,0.657,��,0.6,�L
2020/04/18,06:30,0.694,0.998,0.656,1.206,0.863,0.398,0.692,0.658,�k��,0.9,�L
2020/04/18,06:40,0.693,0.999,0.655,1.205,0.857,0.398,0.690,0.654,�k��,1.4,�L
2020/04/18,06:50,0.691,0.998,0.654,1.203,0.859,0.397,0.690,0.656,���k��,1.2,�L
2020/04/18,07:00,0.691,0.995,0.655,1.204,0.858,0.397,0.689,0.656,���k��,0.9,�L
2020/04/18,07:10,0.690,0.996,0.656,1.202,0.854,0.397,0.689,0.656,���k��,0.9,�L
2020/04/18,07:20,0.690,0.993,0.653,1.201,0.856,0.397,0.688,0.656,�k��,1.4,�L
2020/04/18,07:30,0.688,0.993,0.653,1.200,0.854,0.397,0.687,0.656,���k��,0.9,�L
2020/04/18,07:40,0.688,0.988,0.653,1.200,0.852,0.395,0.687,0.656,�k��,0.8,�L
2020/04/18,07:50,0.688,0.984,0.653,1.197,0.849,0.396,0.687,0.653,���쓌,1.2,�L
2020/04/18,08:00,0.687,0.985,0.650,1.194,0.849,0.396,0.685,0.654,�쓌,2.0,�L
2020/04/18,08:10,0.686,0.983,0.650,1.193,0.848,0.396,0.685,0.652,�쓌,2.6,�L
2020/04/18,08:20,0.684,0.979,0.648,1.194,0.846,0.394,0.684,0.650,��쓌,2.9,�L
2020/04/18,08:30,0.686,0.978,0.649,1.190,0.847,0.393,0.684,0.652,��쓌,3.3,�L
2020/04/18,08:40,0.684,0.979,0.649,1.189,0.845,0.395,0.684,0.651,��,3.5,�L
2020/04/18,08:50,0.681,0.980,0.648,1.190,0.845,0.394,0.685,0.651,��,3.4,�L
2020/04/18,09:00,0.685,0.979,0.648,1.190,0.846,0.395,0.685,0.652,��,2.6,�L
2020/04/18,09:10,0.681,0.977,0.648,1.190,0.845,0.395,0.685,0.651,��쓌,3.2,�L
2020/04/18,09:20,0.684,0.975,0.649,1.188,0.847,0.394,0.684,0.651,��쓌,3.7,�L
2020/04/18,09:30,0.684,0.971,0.648,1.189,0.845,0.395,0.684,0.652,�쓌,4.9,�L
2020/04/18,09:40,0.685,0.975,0.648,1.190,0.846,0.394,0.685,0.653,��쓌,4.9,��
2020/04/18,09:50,0.684,0.975,0.647,1.185,0.845,0.394,0.686,0.653,��쓌,4.8,�L
2020/04/18,10:00,0.685,0.974,0.646,1.186,0.846,0.393,0.683,0.651,�쓌,5.8,�L
2020/04/18,10:10,0.684,0.974,0.646,1.188,0.845,0.392,0.686,0.652,��쓌,6.5,��
2020/04/18,10:20,0.684,0.974,0.648,1.187,0.845,0.394,0.686,0.652,��쓌,6.7,�L
2020/04/18,10:30,0.683,0.977,0.649,1.190,0.846,0.392,0.685,0.652,��쓌,5.0,�L
2020/04/18,10:40,0.684,0.977,0.649,1.188,0.845,0.393,0.685,0.651,��쓌,5.9,�L
2020/04/18,10:50,0.683,0.978,0.649,1.187,0.846,0.393,0.686,0.653,�쓌,6.0,��
2020/04/18,11:00,0.684,0.978,0.649,1.187,0.844,0.394,0.685,0.653,�쓌,8.7,��
2020/04/18,11:10,0.684,0.978,0.647,1.188,0.845,0.394,0.686,0.652,�쓌,12.1,�L
2020/04/18,11:20,0.685,0.978,0.650,1.189,0.845,0.394,0.684,0.652,���쓌,11.4,�L
2020/04/18,11:30,0.686,0.979,0.647,1.187,0.843,0.393,0.685,0.651,�쓌,11.9,�L
2020/04/18,11:40,0.685,0.976,0.649,1.187,0.843,0.394,0.684,0.651,���쓌,11.3,�L
2020/04/18,11:50,0.685,0.975,0.648,1.186,0.843,0.394,0.684,0.650,���쓌,10.7,�L
2020/04/18,12:00,0.680,0.969,0.645,1.184,0.839,0.393,0.682,0.648,���쓌,10.2,�L
2020/04/18,12:10,0.675,0.955,0.639,1.175,0.828,0.391,0.680,0.645,���쓌,10.6,�L
2020/04/18,12:20,0.666,0.946,0.634,1.157,0.817,0.387,0.673,0.639,���쓌,9.9,�L
2020/04/18,12:30,0.666,0.945,0.635,1.155,0.816,0.389,0.672,0.640,�쓌,10.3,�L
2020/04/18,12:40,0.662,0.935,0.634,1.150,0.815,0.388,0.671,0.639,�쓌,10.2,�L
2020/04/18,12:50,0.660,0.937,0.632,1.143,0.810,0.389,0.672,0.641,�쓌,8.5,�L
2020/04/18,13:00,0.662,0.933,0.633,1.140,0.811,0.389,0.671,0.638,�쓌,8.4,�L
2020/04/18,13:10,0.664,0.935,0.634,1.138,0.810,0.390,0.670,0.639,�쓌,12.2,�L
2020/04/18,13:20,0.664,0.935,0.633,1.137,0.811,0.389,0.670,0.639,�쓌,10.2,�L
2020/04/18,13:30,0.663,0.930,0.631,1.135,0.807,0.388,0.669,0.640,�쓌,11.4,�L
2020/04/18,13:40,0.662,0.931,0.634,1.136,0.806,0.388,0.669,0.637,�쓌,11.1,�L
2020/04/18,13:50,0.660,0.932,0.632,1.133,0.803,0.388,0.669,0.638,�쓌,12.5,�L
2020/04/18,14:00,0.660,0.927,0.630,1.131,0.803,0.388,0.666,0.638,�쓌,17.6,�L
2020/04/18,14:10,0.657,0.925,0.628,1.127,0.798,0.388,0.667,0.636,�쓌,14.4,�L
2020/04/18,14:20,0.654,0.921,0.624,1.124,0.796,0.385,0.665,0.636,���쓌,14.4,�L
2020/04/18,14:30,0.656,0.920,0.625,1.120,0.794,0.386,0.667,0.636,���쓌,13.6,�L
2020/04/18,14:40,0.657,0.921,0.626,1.121,0.793,0.387,0.666,0.636,���쓌,14.2,�L
2020/04/18,14:50,0.653,0.916,0.623,1.117,0.790,0.387,0.664,0.632,-,CALM,�L
2020/04/18,15:00,0.652,0.913,0.620,1.113,0.786,0.385,0.664,0.631,���쓌,13.6,�L
2020/04/18,15:10,0.655,0.917,0.623,1.113,0.788,0.386,0.665,0.633,���쓌,13.1,�L
2020/04/18,15:20,0.652,0.911,0.624,1.112,0.783,0.385,0.663,0.629,-,CALM,�L
2020/04/18,15:30,0.653,0.913,0.623,1.109,0.782,0.385,0.661,0.631,-,CALM,�L
2020/04/18,15:40,0.651,0.911,0.621,1.108,0.779,0.386,0.660,0.629,-,CALM,�L
2020/04/18,15:50,0.651,0.907,0.621,1.107,0.778,0.385,0.661,0.630,-,CALM,�L
2020/04/18,16:00,0.651,0.908,0.621,1.106,0.775,0.385,0.661,0.630,-,CALM,�L
2020/04/18,16:10,0.649,0.906,0.617,1.101,0.774,0.382,0.659,0.628,-,CALM,�L
2020/04/18,16:20,0.648,0.903,0.615,1.101,0.771,0.381,0.660,0.629,-,CALM,�L
2020/04/18,16:30,0.647,0.903,0.615,1.098,0.766,0.382,0.658,0.629,-,CALM,�L
2020/04/18,16:40,0.646,0.900,0.611,1.101,0.769,0.384,0.659,0.628,-,CALM,�L
2020/04/18,16:50,0.648,0.900,0.609,1.099,0.766,0.381,0.660,0.629,-,CALM,�L
2020/04/18,17:00,0.649,0.897,0.605,1.098,0.765,0.383,0.660,0.628,-,CALM,�L
2020/04/18,17:10,0.650,0.897,0.600,1.100,0.762,0.383,0.660,0.629,-,CALM,�L
2020/04/18,17:20,0.647,0.891,0.592,1.099,0.760,0.384,0.658,0.628,-,CALM,�L
2020/04/18,17:30,0.648,0.890,0.586,1.098,0.756,0.383,0.659,0.628,-,CALM,�L
2020/04/18,17:40,0.647,0.890,0.586,1.099,0.756,0.384,0.660,0.629,-,CALM,�L
2020/04/18,17:50,0.646,0.887,0.580,1.096,0.750,0.383,0.657,0.627,-,CALM,�L
2020/04/18,18:00,0.651,0.893,0.580,1.100,0.752,0.386,0.657,0.630,���쓌,18.2,�L
2020/04/18,18:10,0.649,0.891,0.576,1.097,0.748,0.387,0.656,0.627,���쓌,13.8,�L
2020/04/18,18:20,0.657,0.900,0.580,1.104,0.753,0.388,0.659,0.631,-,CALM,�L
2020/04/18,18:30,0.660,0.907,0.583,1.111,0.757,0.390,0.664,0.633,���쓌,18.0,��
2020/04/18,18:40,0.663,0.910,0.589,1.114,0.759,0.390,0.664,0.636,���쓌,16.1,��
2020/04/18,18:50,0.666,0.910,0.594,1.116,0.761,0.388,0.664,0.637,���쓌,18.3,��
2020/04/18,19:00,0.665,0.913,0.598,1.120,0.764,0.390,0.664,0.636,���쓌,15.5,��
2020/04/18,19:10,0.667,0.913,0.601,1.124,0.765,0.390,0.666,0.638,�쓌,14.7,�L
2020/04/18,19:20,0.665,0.916,0.606,1.125,0.766,0.389,0.665,0.638,�쓌,13.5,��
2020/04/18,19:30,0.662,0.913,0.604,1.126,0.767,0.389,0.668,0.639,�쓌,14.4,�L
2020/04/18,19:40,0.655,0.907,0.607,1.123,0.766,0.389,0.667,0.637,�쓌,12.4,�L
2020/04/18,19:50,0.659,0.910,0.608,1.126,0.767,0.388,0.667,0.639,�쓌,11.6,��
2020/04/18,20:00,0.660,0.914,0.610,1.128,0.768,0.388,0.667,0.639,��쓌,11.3,��
2020/04/18,20:10,0.663,0.917,0.611,1.129,0.770,0.386,0.667,0.639,�쓌,9.9,��
2020/04/18,20:20,0.664,0.916,0.614,1.131,0.772,0.388,0.668,0.639,�쓌,7.6,��
2020/04/18,20:30,0.666,0.918,0.615,1.130,0.774,0.388,0.670,0.639,�쓌,6.0,��
2020/04/18,20:40,0.663,0.920,0.616,1.130,0.775,0.389,0.668,0.639,��쓌,2.2,�L
2020/04/18,20:50,0.664,0.919,0.615,1.133,0.777,0.388,0.669,0.639,���k��,5.3,�L
2020/04/18,21:00,0.663,0.921,0.617,1.134,0.777,0.389,0.669,0.639,��,5.5,�L
2020/04/18,21:10,0.664,0.920,0.616,1.133,0.778,0.387,0.671,0.640,���k��,7.5,��
2020/04/18,21:20,0.663,0.923,0.618,1.137,0.781,0.388,0.669,0.640,���k��,9.5,��
2020/04/18,21:30,0.663,0.924,0.619,1.137,0.782,0.390,0.670,0.638,���k��,10.2,��
2020/04/18,21:40,0.666,0.922,0.621,1.138,0.784,0.390,0.671,0.641,���k��,10.5,��
2020/04/18,21:50,0.665,0.924,0.621,1.140,0.783,0.388,0.672,0.640,��,12.4,��
2020/04/18,22:00,0.665,0.924,0.622,1.141,0.783,0.389,0.671,0.642,��,12.5,�L
2020/04/18,22:10,0.666,0.926,0.621,1.140,0.784,0.387,0.672,0.641,���k��,13.5,��
2020/04/18,22:20,0.666,0.928,0.622,1.145,0.786,0.389,0.672,0.640,���k��,12.8,��
2020/04/18,22:30,0.666,0.927,0.622,1.144,0.787,0.389,0.672,0.641,���k��,13.1,�L
2020/04/18,22:40,0.665,0.928,0.624,1.147,0.788,0.389,0.673,0.642,��,11.8,�L
2020/04/18,22:50,0.666,0.929,0.624,1.147,0.789,0.390,0.672,0.642,��,10.8,�L
2020/04/18,23:00,0.664,0.929,0.624,1.147,0.789,0.389,0.672,0.641,��,12.5,�L
2020/04/18,23:10,0.668,0.929,0.624,1.148,0.789,0.389,0.672,0.642,��,11.3,�L
2020/04/18,23:20,0.666,0.930,0.624,1.150,0.791,0.390,0.673,0.643,���k��,14.4,�L
2020/04/18,23:30,0.668,0.928,0.625,1.150,0.791,0.390,0.673,0.642,���k��,13.3,�L
2020/04/18,23:40,0.667,0.931,0.627,1.150,0.791,0.391,0.673,0.642,��,14.9,�L
2020/04/18,23:50,0.668,0.931,0.627,1.151,0.790,0.390,0.673,0.643,���k��,14.1,��
